Orbital Elements at Epoch 2459000.5 (2020-May-31.0) TDB
Reference: JPL 25 (heliocentric ecliptic J2000)
Element | Value | Uncertainty (1-sigma) | Units |
e | .6502148471204611 | 7.7425e-08 | |
a | 2.339149839724032 | 1.5621e-08 | au |
q | .8181998842960193 | 1.8233e-07 | au |
i | 1.630014071977374 | 7.531e-06 | deg |
node | 172.4877167529924 | 0.0013926 | deg |
peri | 170.8415661631744 | 0.0013898 | deg |
M | 82.95339224520534 | 1.2801e-05 | deg |
tp | 2458699.395573358377 (2019-Aug-03.89557336) | 4.8742e-05 | TDB |
period | 1306.728883016229 3.58 | 1.3089e-05 3.584e-08 | d yr |
n | .2754970864109453 | 2.7596e-09 | deg/d |
Q | 3.860099795152044 | 2.5777e-08 | au |
|
| | Orbit Determination Parameters
Additional Information
|